Flag for U.S.A. Weather past 2 weeks in San Francisco, California, U.S.A.

Now
70 °F

Passing clouds.


Feels Like: 75 °F
Forecast: 60 / 72 °F
Wind: 17 mph from Northwest

Location: San Francisco International Airport

Current Time: Jul 30, 2014 at 1:27:56 PM

Latest Report: Jul 30, 2014 at 12:56 PM


Visibility: 10 mi

Pressure: 29.98 "Hg

Humidity: 66%

Dew point: 58 °F

Location of San FranciscoLocation

Historic Weather in San Francisco — Graph

°F

San Francisco temperature yesterday

Maximum temperature yesterday: 72 °F (at 1:56 PM)
Minimum temperature yesterday: 60 °F (at 5:56 AM)
Average temperature yesterday: 65 °F

Past Weeks' High & Low Weather Summary

 TemperatureHumidityPressure
High87 °F (Jul 25, 1:56 PM)97% (Jul 30, 4:56 AM)30.14 "Hg (Jul 30, 4:56 AM)
Low58 °F (Jul 20, 5:56 AM)38% (Jul 25, 3:56 PM)29.83 "Hg (Jul 25, 5:56 PM)
Average68 °F73%29.98 "Hg
* Reported Jul 15 12:56 PM — Jul 30 12:00 Noon, San Francisco, Weather by CustomWeather, © 2014

Note: Actual official high and low records may vary slightly from our data, if they occured in-between our weather recording intervals... More about our weather records

Advertising

San Francisco weather history for previous 24 hours

 ConditionsComfort  
Time TempWeatherWind HumidityBarometerVisibility
12:00 PM
Jul 30
70 °FPassing clouds.16 mph64%30.00 "Hg10 mi
10:56 AM67 °FPassing clouds.13 mph73%30.01 "Hg10 mi
9:56 AM64 °FPassing clouds.14 mph81%30.01 "Hg10 mi
8:56 AM64 °FPassing clouds.12 mph81%30.01 "Hg10 mi
7:56 AM61 °FPassing clouds.8 mph90%30.01 "Hg10 mi
6:56 AM59 °FPassing clouds.7 mph93%30.00 "Hg10 mi
5:56 AM58 °FPassing clouds.10 mph97%29.98 "Hg10 mi
4:56 AM58 °FPassing clouds.10 mph97%29.98 "Hg10 mi
3:56 AM60 °FPassing clouds.10 mph90%29.97 "Hg10 mi
2:56 AM61 °FPassing clouds.12 mph87%29.98 "Hg10 mi
1:56 AM60 °FPassing clouds.14 mph90%29.98 "Hg10 mi
12:56 AM61 °FPassing clouds.15 mph87%29.99 "Hg10 mi
11:56 PM
Jul 29
61 °FPassing clouds.15 mph87%30.00 "Hg10 mi
10:56 PM61 °FPassing clouds.15 mph87%30.00 "Hg10 mi
9:56 PM61 °FPassing clouds.15 mph87%30.00 "Hg10 mi
8:56 PM62 °FScattered clouds.17 mph83%29.99 "Hg10 mi
7:56 PM63 °FScattered clouds.21 mph81%29.98 "Hg10 mi
6:56 PM64 °FScattered clouds.21 mph78%29.98 "Hg10 mi
5:56 PM68 °FScattered clouds.21 mph68%29.98 "Hg10 mi
4:56 PM70 °FScattered clouds.22 mph64%29.98 "Hg10 mi
3:56 PM70 °FScattered clouds.21 mph66%29.99 "Hg10 mi
2:56 PM71 °FScattered clouds.22 mph61%30.01 "Hg10 mi
1:56 PM72 °FPassing clouds.21 mph59%30.02 "Hg10 mi
Weather by CustomWeather, © 2014

See weather overviewHow to use our weather pages